Weather History for San Carlos, CA

Change the Weather History Date:

Tuesday, February 26, 2013

  Actual Average Record
Temperature  
Mean Temperature 52 °F -  
Max Temperature 66 °F 65 °F 79 °F (1986)
Min Temperature 39 °F 42 °F 32 °F (1971)
Degree Days  
Heating Degree Days 12    
Growing Degree Days 2 (Base 50)    
Moisture  
Dew Point 35 °F    
Average Humidity 66    
Maximum Humidity 93    
Minimum Humidity 17    
Precipitation  
Precipitation 0.00 in - - ()
Sea Level Pressure  
Sea Level Pressure 30.20 in    
Wind  
Wind Speed 2 mph (NW)    
Max Wind Speed 9 mph    
Max Gust Speed -    
Visibility 10 miles    
Events      
Averages and records for this station are not official NWS values.
T = Trace of Precipitation, MM = Missing Value Source: NWS Daily Summary

Daily Weather History Graph

Daily Weather History Graph

Search for Another Location

Airport:

Trip Planner

Search our weather history database for the weather conditions in past years. The results will help you decide how hot, cold, wet, or windy it might be!

Date:

Astronomy

Feb. 26, 2013 Rise Set
Actual Time 6:43 AM PST 6:00 PM PST
Civil Twilight 6:17 AM PST 6:26 PM PST
Nautical Twilight 5:47 AM PST 6:56 PM PST
Astronomical Twilight 5:17 AM PST 7:27 PM PST
Moon 7:19 PM PST (2/26) 6:51 AM PST (2/26)
Length of Visible Light 12h 08m
Length of Day
11h 16m
Full, 99% of the Moon is Illuminated
Feb 26
Full
Mar 4
Last Quarter
Mar 11
New
Mar 19
First Quarter
Mar 27
Full

Hourly Weather History & Observations

Time (PST) Temp. Windchill Dew Point Humidity Pressure Visibility Wind Dir Wind Speed Gust Speed Precip Events Conditions
12:15 AM 44.6 °F 41.4 °F 39.2 °F 81% 30.23 in 10.0 mi NW 5.8 mph - N/A   Clear
12:35 AM 46.4 °F 43.5 °F 37.4 °F 71% 30.22 in 10.0 mi West 5.8 mph - N/A   Clear
12:55 AM 44.6 °F - 37.4 °F 76% 30.22 in 10.0 mi Calm Calm - N/A   Clear
1:15 AM 44.6 °F - 39.2 °F 81% 30.22 in 10.0 mi Calm Calm - N/A   Clear
1:35 AM 44.6 °F 42.2 °F 39.2 °F 81% 30.21 in 10.0 mi SW 4.6 mph - N/A   Clear
1:55 AM 44.6 °F - 39.2 °F 81% 30.21 in 10.0 mi Calm Calm - N/A   Clear
2:15 AM 44.6 °F - 39.2 °F 81% 30.21 in 10.0 mi Calm Calm - N/A   Clear
2:35 AM 42.8 °F - 37.4 °F 81% 30.21 in 10.0 mi Calm Calm - N/A   Clear
2:55 AM 42.8 °F - 37.4 °F 81% 30.21 in 10.0 mi Calm Calm - N/A   Clear
3:15 AM 42.8 °F 41.1 °F 37.4 °F 81% 30.20 in 10.0 mi SW 3.5 mph - N/A   Clear
3:35 AM 41.0 °F - 37.4 °F 87% 30.19 in 10.0 mi Calm Calm - N/A   Clear
3:55 AM 42.8 °F - 39.2 °F 87% 30.20 in 10.0 mi Calm Calm - N/A   Clear
4:15 AM 41.0 °F - 37.4 °F 87% 30.19 in 10.0 mi Calm Calm - N/A   Clear
4:35 AM 42.8 °F - 39.2 °F 87% 30.20 in 10.0 mi Calm Calm - N/A   Clear
4:55 AM 41.0 °F 39.0 °F 39.2 °F 93% 30.20 in 10.0 mi WSW 3.5 mph - N/A   Clear
5:15 AM 41.0 °F - 37.4 °F 87% 30.20 in 10.0 mi Calm Calm - N/A   Clear
5:35 AM 39.2 °F - 37.4 °F 93% 30.21 in 10.0 mi Calm Calm - N/A   Clear
5:55 AM 41.0 °F - 37.4 °F 87% 30.21 in 10.0 mi Calm Calm - N/A   Partly Cloudy
6:15 AM 41.0 °F - 37.4 °F 87% 30.22 in 10.0 mi Calm Calm - N/A   Scattered Clouds
6:35 AM 41.0 °F - 37.4 °F 87% 30.22 in 10.0 mi Calm Calm - N/A   Partly Cloudy
6:49 AM 41.0 °F - 37.4 °F 87% 30.22 in 10.0 mi Calm Calm - N/A   Clear
6:55 AM 41.0 °F - 37.4 °F 87% 30.22 in 9.0 mi Calm Calm - N/A   Clear
7:47 AM 44.6 °F - 39.2 °F 81% 30.22 in 10.0 mi Calm Calm - N/A   Clear
8:47 AM 50.0 °F - 42.8 °F 76% 30.23 in 10.0 mi Calm Calm - N/A   Clear
9:47 AM 55.4 °F - 32.0 °F 41% 30.23 in 10.0 mi North 4.6 mph - N/A   Partly Cloudy
10:51 AM 57.2 °F - 30.2 °F 36% 30.22 in 10.0 mi North 4.6 mph - N/A   Partly Cloudy
12:49 PM 60.8 °F - 28.4 °F 29% 30.19 in 10.0 mi North 5.8 mph - N/A   Partly Cloudy
1:47 PM 64.4 °F - 23.0 °F 21% 30.17 in 10.0 mi NNW 4.6 mph - N/A   Partly Cloudy
2:47 PM 66.2 °F - 19.4 °F 17% 30.16 in 10.0 mi NW 8.1 mph - N/A   Partly Cloudy
3:47 PM 66.2 °F - 24.8 °F 21% 30.15 in 10.0 mi NNW 9.2 mph - N/A   Partly Cloudy
4:50 PM 62.6 °F - 32.0 °F 32% 30.15 in 10.0 mi WNW 9.2 mph - N/A   Partly Cloudy
5:47 PM 59.0 °F - 28.4 °F 31% 30.16 in 10.0 mi WNW 8.1 mph - N/A   Scattered Clouds
6:55 PM 57.2 °F - 23.0 °F 27% 30.18 in 10.0 mi WNW 3.5 mph - N/A   Clear
7:47 PM 51.8 °F - 39.2 °F 62% 30.19 in 10.0 mi Calm Calm - N/A   Clear
8:47 PM 51.8 °F - 35.6 °F 54% 30.20 in 10.0 mi Calm Calm - N/A   Clear
9:15 PM 50.0 °F - 32.0 °F 50% 30.20 in 10.0 mi Calm Calm - N/A   Clear
9:35 PM 50.0 °F - 32.0 °F 50% 30.21 in 10.0 mi Calm Calm - N/A   Clear
9:55 PM 48.2 °F - 33.8 °F 58% 30.21 in 10.0 mi Calm Calm - N/A   Clear
10:15 PM 48.2 °F - 32.0 °F 54% 30.21 in 10.0 mi Calm Calm - N/A   Clear
10:35 PM 48.2 °F - 35.6 °F 62% 30.22 in 10.0 mi SE 3.5 mph - N/A   Clear
10:55 PM 48.2 °F - 32.0 °F 54% 30.22 in 10.0 mi Calm Calm - N/A   Clear
11:15 PM 46.4 °F 45.2 °F 32.0 °F 57% 30.22 in 10.0 mi NW 3.5 mph - N/A   Clear
11:35 PM 48.2 °F - 32.0 °F 54% 30.22 in 10.0 mi Calm Calm - N/A   Clear
11:55 PM 46.4 °F - 37.4 °F 71% 30.23 in 10.0 mi Calm Calm - N/A   Clear